User: anonymous   Login
Location: Unspecified
(0.0000°N, 0.0000°E)
Time: 20:04:32
(UTC+00:00)
Language:

Courier 1B - Orbit

View from above orbital plane
View from above orbital plane
View from above satellite
View from above satellite

Ground track
Ground track

The orbit data is extracted from the following two-line orbital elements,

1 00058U 60013A   17346.44797681  .00000079  00000-0 -51897-5 0  9992
2 00058  28.3285  71.8699 0165028  29.0581 331.9037 13.46311659815346
Epoch (UTC): 12 December 2017 10:45:05
Eccentricity: 0.0165028
inclination: 28.3285°
perigee height: 962 km
apogee height: 1209 km
right ascension of ascending node: 71.8699°
argument of perigee: 29.0581°
revolutions per day: 13.46311659
mean anomaly at epoch: 331.9037°
orbit number at epoch: 81534

The dashed part of the orbit path shows where the satellite is in the earth's shadow,  

DLR